SES-7 (PROTOSTAR 2) (34941 NORAD) Tracking and Keplerian Element Data

This shows tracking and keplerian element data for the satellite.

Feedback or suggestion? Click here.




ElementValue
Catalog34941
NameSES-7 (PROTOSTAR 2)
Epoch Orbit5763
Epoch Day34.70512022
Epoch Year2025
RAAN44.0359
Inclination0.0091
Eccentricity0.0002122
Argument of Perigee256.799
Mean Anonmoly195.3477
Mean Motion1.00270273
Decay Rate-3.41E-06
L11 34941U 09027A 25034.70512022 -.00000341 00000+0 00000+0 0 9999
L22 34941 0.0091 44.0359 0002122 256.7990 195.3477 1.00270273 57632



Live tracking and technical data element details for SES-7 (PROTOSTAR 2) (NORAD 34941). SES-7 (PROTOSTAR 2) can be tracked NOW for your location showing map with azimuth and elevation plus other details from your city location.







IsCatalogInMostPopularTable: catalog: 34941, numindb: 348
Update: records affected: 1



GetName: 34941 SES-7 (PROTOSTAR 2)

Hit Count: updated at: Thu, 15 May 2025 18:19:02 GMT